{"data":{"norad_id":63746,"epoch":"2026-09-21T11:57:37.350144Z","epoch_age_seconds":118520,"freshness":"FRESH","line1":"1 63746U 25088Y   26264.49834896  .00000755  00000+0  12804-3 0  9994","line2":"2 63746  51.9016 339.7232 0001045 101.3318 258.7762 14.79929638 76611","mean_motion":14.79929638,"eccentricity":0.0001045,"inclination_deg":51.9016,"raan_deg":339.7232,"arg_perigee_deg":101.3318,"mean_anomaly_deg":258.7762,"bstar":0.00012804,"rev_number":7661,"period_min":97.301923214812,"perigee_km":628.81393929717,"apogee_km":630.27854509479,"semimajor_km":7007.683242196,"source":"CELESTRAK","updated_at":"2026-09-22T09:00:29.321853Z"}}